This demonstration page uses our WeatherBlox Daily Observations layout. Learn more.

39.01783, -85.05884

Hourly Observations for August 24, 2020

Temp ( °F °C ) Dew Point ( °F °C ) Humidity (%) Winds ( mph kmh ) Pressure ( in mb ) Visibility ( mi km ) Precip ( " mm )
12:52 am 00:52 Clear 71 21.7 67 19.4 87 87 SW 5 7 30.04 1017 10 16.0934 0 0
1:52 am 01:52 Clear 72 22.2 67 19.4 84 84 WSW 6 9 30.03 1017 10 16.0934 0 0
2:52 am 02:52 Clear 70 21.1 67 19.4 90 90 Calm 30.03 1017 10 16.0934 0 0
3:52 am 03:52 Clear 68 20 66 18.9 93 93 Calm 30.04 1017 10 16.0934 0 0
4:52 am 04:52 Clear 69 20.6 66 18.9 90 90 SSW 5 7 30.05 1018 10 16.0934 0 0
5:52 am 05:52 Clear 68 20 66 18.9 93 93 S 3 6 30.06 1018 10 16.0934 0 0
6:52 am 06:52 Mostly Clear with Patchy Fog 68 20 66 18.9 93 93 Calm 30.06 1018 6 9.65604 0 0
7:52 am 07:52 Partly Cloudy with Patchy Fog 69 20.6 67 19.4 93 93 Calm 30.08 1019 6 9.65604 0 0
8:52 am 08:52 Mostly Sunny 74 23.3 68 20 82 82 SW 5 7 30.09 1019 8 12.87472 0 0
9:52 am 09:52 Mostly Sunny 78 25.6 69 20.6 74 74 WSW 7 11 30.1 1019 9 14.48406 0 0
10:52 am 10:52 Mostly Sunny 79 26.1 69 20.6 72 72 SW 8 13 30.11 1020 9 14.48406 0 0
11:52 am 11:52 Partly Cloudy 82 27.8 69 20.6 65 65 SSW 9 15 30.1 1019 10 16.0934 0 0
12:52 pm 12:52 Mostly Sunny 84 28.9 68 20 59 59 SSW 10 17 30.09 1019 10 16.0934 0 0
1:52 pm 13:52 Partly Cloudy 86 30 67 19.4 53 53 W 12 19 30.07 1018 10 16.0934 0 0
2:52 pm 14:52 Partly Cloudy 87 30.6 69 20.6 55 55 SW 7 11 30.06 1018 10 16.0934 0 0
3:52 pm 15:52 Partly Cloudy 86 30 68 20 55 55 SW 12 19 30.04 1017 10 16.0934 0 0
4:52 pm 16:52 Mostly Sunny 87 30.6 67 19.4 51 51 SW 12 19 30.02 1017 10 16.0934 0 0
5:52 pm 17:52 Mostly Sunny 86 30 67 19.4 53 53 SW 12 19 30.01 1016 10 16.0934 0 0
6:52 pm 18:52 Mostly Sunny 84 28.9 68 20 59 59 SW 7 11 30.02 1017 10 16.0934 0 0
7:52 pm 19:52 Mostly Sunny 82 27.8 68 20 63 63 SW 6 9 30.02 1017 10 16.0934 0 0
8:52 pm 20:52 Mostly Clear 79 26.1 68 20 69 69 SSW 6 9 30.03 1017 10 16.0934 0 0
9:52 pm 21:52 Clear 78 25.6 68 20 71 71 SSW 7 11 30.04 1017 10 16.0934 0 0
10:52 pm 22:52 Mostly Clear 76 24.4 68 20 77 77 SSW 6 9 30.04 1017 10 16.0934 0 0
11:52 pm 23:52 Mostly Clear 76 24.4 68 20 77 77 SSW 8 13 30.04 1017 10 16.0934 0 0

Powered by AerisWeather